Tracking 25995 objects as of 19-Aug-2022
HD Live streaming from Space Station
objects crossing your sky now

STARLINK-3989

Track STARLINK-3989 now!
10-day predictions
STARLINK-3989 is classified as:


NORAD ID: 52630
Int'l Code: 2022-052AJ
Perigee: 545.6 km
Apogee: 547.9 km
Inclination: 53.2 °
Period: 95.4 minutes
Semi major axis: 6917 km
RCS: Unknown
Launch date: May 14, 2022
Source: United States (US)
Launch site: AIR FORCE EASTERN TEST RANGE (AFETR)
aabbcc
Your satellite tracking list
Your tracking list is empty




NASA's NSSDC Master Catalog

Two Line Element Set (TLE):
1 52630U 22052AJ  22230.91667824 -.00061588  00000-0 -38807-2 0  9997
2 52630  53.2185 339.5295 0001649  51.7241 106.2889 15.08879417  1306
Source of the keplerian elements: AFSPC